When you browse on this site, cookies collect data to enhance your experience and personalize the content and advertising you see.
Visit our Privacy Policy to learn more. By continuing to use the site, you agree to this use of cookies and data.

Hourly Weather Askim

Today, 4 July, Saturday

Time Temperature Precipitation Wind Pressure Humidity
00:00 +11°C° 0.5 mm 1 mps 740 mmHg 97%
01:00 +11°C° 0 mm 1 mps 739 mmHg 97%
02:00 +11°C° 0.7 mm 1 mps 739 mmHg 97%
03:00 +11°C° 0.7 mm 1 mps 739 mmHg 98%
04:00 +11°C° 0.7 mm 1 mps 738 mmHg 98%
05:00 +11°C° 0.2 mm 1 mps 738 mmHg 97%
06:00 +11°C° 0.2 mm 1 mps 738 mmHg 95%
07:00 +10°C° 0 mm 2 mps 738 mmHg 94%
08:00 +13°C° 0 mm 2 mps 738 mmHg 81%
09:00 +15°C° 0 mm 2 mps 738 mmHg 68%
10:00 +16°C° 0 mm 2 mps 738 mmHg 56%
11:00 +19°C° 0 mm 1 mps 738 mmHg 50%
12:00 +21°C° 0 mm 1 mps 739 mmHg 44%
13:00 +21°C° 0 mm 0 mps 739 mmHg 37%
14:00 +22°C° 0 mm 1 mps 738 mmHg 40%
15:00 +20°C° 0 mm 2 mps 738 mmHg 43%
16:00 +19°C° 0 mm 2 mps 738 mmHg 46%
17:00 +18°C° 0 mm 2 mps 738 mmHg 51%
18:00 +18°C° 0 mm 2 mps 738 mmHg 56%
19:00 +17°C° 0 mm 2 mps 738 mmHg 61%
20:00 +15°C° 0 mm 1 mps 738 mmHg 68%
21:00 +14°C° 0 mm 1 mps 738 mmHg 76%
22:00 +12°C° 0 mm 1 mps 738 mmHg 83%
23:00 +12°C° 0 mm 1 mps 737 mmHg 87%

Tomorrow, 5 July, Sunday

Time Temperature Precipitation Wind Pressure Humidity
00:00 +11°C° 0 mm 1 mps 737 mmHg 90%
01:00 +11°C° 0 mm 1 mps 737 mmHg 94%
02:00 +11°C° 0.4 mm 1 mps 737 mmHg 95%
03:00 +12°C° 0.4 mm 1 mps 736 mmHg 96%
04:00 +12°C° 0.4 mm 1 mps 736 mmHg 97%
05:00 +13°C° 0.2 mm 2 mps 735 mmHg 96%
06:00 +14°C° 0.2 mm 2 mps 735 mmHg 95%
07:00 +14°C° 0.2 mm 2 mps 734 mmHg 94%
08:00 +14°C° 0.9 mm 2 mps 733 mmHg 95%
09:00 +14°C° 0.9 mm 2 mps 732 mmHg 96%
10:00 +13°C° 0.9 mm 3 mps 732 mmHg 97%
11:00 +13°C° 3.7 mm 3 mps 731 mmHg 97%
12:00 +13°C° 3.7 mm 4 mps 729 mmHg 97%
13:00 +14°C° 3.7 mm 5 mps 728 mmHg 97%
14:00 +14°C° 0.6 mm 6 mps 728 mmHg 92%
15:00 +15°C° 0.6 mm 6 mps 727 mmHg 87%
16:00 +16°C° 0.6 mm 7 mps 727 mmHg 81%
17:00 +15°C° 0.4 mm 6 mps 727 mmHg 84%
18:00 +15°C° 0.4 mm 5 mps 726 mmHg 86%
19:00 +14°C° 0.4 mm 5 mps 726 mmHg 89%
20:00 +13°C° 0.1 mm 5 mps 726 mmHg 85%
21:00 +13°C° 0.1 mm 6 mps 726 mmHg 82%
22:00 +11°C° 0.1 mm 7 mps 726 mmHg 78%
23:00 +11°C° 0 mm 7 mps 726 mmHg 75%

Day after tomorrow, 6 July, Monday

Time Temperature Precipitation Wind Pressure Humidity
00:00 +11°C° 0 mm 7 mps 726 mmHg 71%
01:00 +10°C° 0 mm 7 mps 726 mmHg 68%
02:00 +10°C° 0 mm 7 mps 725 mmHg 67%
03:00 +10°C° 0 mm 7 mps 725 mmHg 67%
04:00 +10°C° 0 mm 6 mps 725 mmHg 66%
05:00 +10°C° 0.1 mm 6 mps 725 mmHg 68%
06:00 +11°C° 0.1 mm 6 mps 725 mmHg 70%
07:00 +12°C° 0.1 mm 5 mps 725 mmHg 73%
08:00 +13°C° 0.1 mm 5 mps 725 mmHg 70%
09:00 +14°C° 0.1 mm 4 mps 725 mmHg 68%
10:00 +16°C° 0.1 mm 3 mps 725 mmHg 65%
11:00 +14°C° 0.1 mm 3 mps 726 mmHg 70%
12:00 +14°C° 0.1 mm 2 mps 726 mmHg 76%
13:00 +14°C° 0.1 mm 2 mps 727 mmHg 81%
14:00 +14°C° 0.2 mm 3 mps 728 mmHg 78%
15:00 +16°C° 0.2 mm 3 mps 728 mmHg 75%
16:00 +17°C° 0.2 mm 4 mps 729 mmHg 72%
17:00 +15°C° 0.4 mm 4 mps 730 mmHg 76%
18:00 +14°C° 0.4 mm 3 mps 731 mmHg 80%
19:00 +13°C° 0.4 mm 3 mps 732 mmHg 84%
20:00 +12°C° 0 mm 3 mps 733 mmHg 84%
21:00 +11°C° 0 mm 3 mps 733 mmHg 85%
22:00 +10°C° 0 mm 2 mps 734 mmHg 85%
23:00 +10°C° 0 mm 2 mps 735 mmHg 83%

7 July, Tuesday

Time Temperature Precipitation Wind Pressure Humidity
00:00 +10°C° 0 mm 2 mps 736 mmHg 81%
01:00 +11°C° 0 mm 1 mps 736 mmHg 80%
02:00 +11°C° 0.1 mm 1 mps 737 mmHg 83%
03:00 +11°C° 0.1 mm 1 mps 738 mmHg 86%
04:00 +10°C° 0.1 mm 2 mps 738 mmHg 89%
05:00 +9°C° 0.5 mm 2 mps 738 mmHg 91%
06:00 +9°C° 0.5 mm 2 mps 739 mmHg 93%
07:00 +9°C° 0.5 mm 2 mps 739 mmHg 95%
08:00 +9°C° 0.8 mm 2 mps 739 mmHg 95%
09:00 +10°C° 0.8 mm 1 mps 740 mmHg 95%
10:00 +10°C° 0.8 mm 1 mps 740 mmHg 95%
11:00 +9°C° 0.5 mm 2 mps 740 mmHg 94%
12:00 +9°C° 0.5 mm 2 mps 740 mmHg 93%
13:00 +10°C° 0.5 mm 2 mps 740 mmHg 93%
14:00 +10°C° 0.3 mm 2 mps 740 mmHg 91%
15:00 +10°C° 0.3 mm 2 mps 740 mmHg 88%
16:00 +11°C° 0.3 mm 3 mps 741 mmHg 86%
17:00 +12°C° 0.4 mm 2 mps 741 mmHg 88%
18:00 +10°C° 0.4 mm 2 mps 741 mmHg 91%
19:00 +10°C° 0.4 mm 2 mps 741 mmHg 93%
20:00 +9°C° 0.1 mm 2 mps 741 mmHg 93%
21:00 +9°C° 0.1 mm 2 mps 742 mmHg 93%
22:00 +8°C° 0.1 mm 2 mps 742 mmHg 92%
23:00 +8°C° 0 mm 2 mps 743 mmHg 92%

8 July, Wednesday

Time Temperature Precipitation Wind Pressure Humidity
00:00 +7°C° 0 mm 2 mps 743 mmHg 92%
01:00 +6°C° 0 mm 2 mps 743 mmHg 92%
02:00 +6°C° 0 mm 2 mps 744 mmHg 92%
03:00 +6°C° 0 mm 2 mps 744 mmHg 92%
04:00 +5°C° 0 mm 2 mps 744 mmHg 92%
05:00 +8°C° 0 mm 1 mps 744 mmHg 86%
06:00 +10°C° 0 mm 1 mps 744 mmHg 80%
07:00 +12°C° 0 mm 1 mps 744 mmHg 74%
08:00 +14°C° 0 mm 1 mps 744 mmHg 64%
09:00 +16°C° 0 mm 1 mps 744 mmHg 55%
10:00 +19°C° 0 mm 1 mps 744 mmHg 46%
11:00 +18°C° 0 mm 2 mps 743 mmHg 46%
12:00 +18°C° 0 mm 2 mps 743 mmHg 46%
13:00 +18°C° 0 mm 3 mps 743 mmHg 45%
14:00 +18°C° 0.1 mm 3 mps 743 mmHg 46%
15:00 +18°C° 0.1 mm 3 mps 742 mmHg 46%
16:00 +18°C° 0.1 mm 2 mps 742 mmHg 47%
17:00 +16°C° 0.2 mm 2 mps 741 mmHg 60%
18:00 +15°C° 0.2 mm 2 mps 741 mmHg 72%
19:00 +13°C° 0.2 mm 1 mps 741 mmHg 85%
20:00 +13°C° 0.9 mm 1 mps 740 mmHg 89%
21:00 +12°C° 0.9 mm 1 mps 740 mmHg 93%
22:00 +11°C° 0.9 mm 1 mps 739 mmHg 97%
23:00 +10°C° 1.6 mm 2 mps 739 mmHg 97%

9 July, Thursday

Time Temperature Precipitation Wind Pressure Humidity
00:00 +10°C° 1.6 mm 3 mps 738 mmHg 97%
01:00 +10°C° 1.6 mm 3 mps 738 mmHg 97%
02:00 +10°C° 2.2 mm 4 mps 737 mmHg 97%
03:00 +10°C° 2.2 mm 4 mps 737 mmHg 97%
04:00 +10°C° 2.2 mm 4 mps 737 mmHg 97%
05:00 +10°C° 0.7 mm 4 mps 737 mmHg 97%
06:00 +8°C° 0.7 mm 4 mps 737 mmHg 97%
07:00 +8°C° 0.7 mm 5 mps 736 mmHg 97%
08:00 +9°C° 0.2 mm 5 mps 737 mmHg 96%
09:00 +10°C° 0.2 mm 4 mps 737 mmHg 95%
10:00 +10°C° 0.2 mm 4 mps 737 mmHg 94%
11:00 +10°C° 0.2 mm 4 mps 737 mmHg 93%
12:00 +10°C° 0.2 mm 4 mps 738 mmHg 92%
13:00 +11°C° 0.2 mm 4 mps 738 mmHg 91%
14:00 +11°C° 0.1 mm 4 mps 738 mmHg 89%
15:00 +11°C° 0.1 mm 3 mps 738 mmHg 87%
16:00 +12°C° 0.1 mm 3 mps 739 mmHg 85%
17:00 +12°C° 0 mm 3 mps 739 mmHg 81%
18:00 +14°C° 0 mm 2 mps 739 mmHg 77%
19:00 +14°C° 0 mm 2 mps 739 mmHg 73%
20:00 +13°C° 0 mm 2 mps 740 mmHg 80%
21:00 +10°C° 0 mm 2 mps 740 mmHg 87%
22:00 +10°C° 0 mm 1 mps 740 mmHg 94%
23:00 +9°C° 0 mm 1 mps 741 mmHg 95%
Show more